Meteo Giornale » Osservazioni meteo Francia » La Heve
ore: 21:30 - Osservazioni Meteo La Heve
Lat. 49° 31' N Lon. 0° 4' E Alt. 100 metri s.l.m.
18 °C
Molto Nuvoloso
Temp. 24 Ore
17 °C
21 °C
Ovest
24 Km/h
Dew point 14 °C
Umidità 77 %
Visibilità 10 Km
Il sole sorge alle ore 07:14
Il sole tramonta alle ore 20:45
| Data e Ora | Cielo e Fenomeni | T °C | DP °C | Um. % | Pres. hPa | Vis. km | Vento km/h | |
|---|---|---|---|---|---|---|---|---|
| Oggi h: 21:30 | Molto Nuvoloso | 18 | 14 | 77 | 1020 | 10 | O 24 | |
| Oggi h: 21:00 | Nuvoloso | 19 | 14 | 72 | 1020 | 10 | O 25.9 | |
| Oggi h: 20:30 | Molto Nuvoloso | 19 | 15 | 77 | 1019 | 10 | O 24 | |
| Oggi h: 20:00 | Poco Nuvoloso | 19 | 14 | 72 | 1019 | 10 | O 25.9 | |
| Oggi h: 19:30 | Molto Nuvoloso | 19 | 14 | 72 | 1019 | 10 | O 25.9 | |
| Oggi h: 19:00 | Molto Nuvoloso | 20 | 14 | 68 | 1019 | 10 | O 27.8 | |
| Oggi h: 18:30 | Molto Nuvoloso | 20 | 15 | 72 | 1019 | 10 | O 22.2 | |
| Oggi h: 18:00 | Molto Nuvoloso | 20 | 14 | 68 | 1018 | 10 | O 27.8 | |
| Oggi h: 17:30 | Poco Nuvoloso | 20 | 14 | 68 | 1018 | 10 | O 27.8 | |
| Oggi h: 17:00 | Nuvoloso | 20 | 15 | 72 | 1018 | 10 | O 31.5 | |
| Oggi h: 16:30 | Molto Nuvoloso | 20 | 15 | 72 | 1018 | 10 | O 29.6 | |
| Oggi h: 16:00 | Coperto | 21 | 13 | 60 | 1018 | 10 | O 29.6 | |
| Oggi h: 15:30 | Molto Nuvoloso | 20 | 14 | 68 | 1017 | 10 | O 31.5 | |
| Oggi h: 15:00 | Molto Nuvoloso | 21 | 14 | 64 | 1017 | 10 | O 33.3 | |
| Oggi h: 14:30 | Molto Nuvoloso | 21 | 14 | 64 | 1017 | 10 | O 29.6 | |
| Oggi h: 14:00 | Coperto | 21 | 14 | 64 | 1016 | 10 | O 31.5 | |
| Oggi h: 13:30 | Molto Nuvoloso | 20 | 14 | 68 | 1016 | 10 | O 31.5 | |
| Oggi h: 13:00 | Molto Nuvoloso | 20 | 14 | 68 | 1016 | 10 | O 33.3 | |
| Oggi h: 12:30 | Coperto | 19 | 15 | 77 | 1015 | 10 | O 33.3 | |
| Oggi h: 12:00 | Molto Nuvoloso | 19 | 14 | 72 | 1015 | 10 | O 31.5 | |
| Oggi h: 11:30 | Nuvoloso | 19 | 15 | 77 | 1014 | 10 | O 29.6 | |
| Oggi h: 11:00 | Molto Nuvoloso | 18 | 15 | 82 | 1014 | 10 | O 35.2 | |
| Oggi h: 10:30 | Molto Nuvoloso | 18 | 15 | 82 | 1013 | 10 | O 38.8 | |
| Oggi h: 10:00 | Coperto | 18 | 15 | 82 | 1013 | 10 | O/SO 33.3 | |
| Oggi h: 09:30 | Molto Nuvoloso | 17 | 15 | 88 | 1013 | 10 | O/SO 35.2 | |
| Oggi h: 09:00 | Coperto | 18 | 15 | 82 | 1012 | 10 | SO 33.3 | |
| Oggi h: 08:30 | Coperto | 17 | 15 | 88 | 1012 | 10 | O/SO 37 | |
| Oggi h: 08:00 | Coperto | 17 | 15 | 88 | 1012 | 10 | O/SO 33.3 | |
| Oggi h: 07:30 | Coperto | 17 | 15 | 88 | 1012 | 10 | SO 27.8 | |
| Oggi h: 07:00 | Coperto | 17 | 15 | 88 | 1011 | 10 | O/SO 33.3 | |
| Oggi h: 06:30 | Coperto | 17 | 15 | 88 | 1011 | 10 | O/SO 31.5 | |
| Oggi h: 06:00 | Coperto | 17 | 15 | 88 | 1011 | 10 | SO 37 | |
| Oggi h: 05:30 | Coperto | 18 | 14 | 77 | 1011 | 10 | SO 37 | |
| Oggi h: 05:00 | Coperto | 17 | 14 | 82 | 1010 | 10 | SO 33.3 | |
| Oggi h: 04:30 | Molto Nuvoloso | 18 | 14 | 77 | 1010 | 10 | SO 35.2 | |
| Oggi h: 04:00 | Coperto | 18 | 14 | 77 | 1010 | 10 | SO 33.3 | |
| Oggi h: 03:30 | Coperto | 18 | 14 | 77 | 1010 | 10 | SO 31.5 | |
| Oggi h: 03:00 | Molto Nuvoloso | 18 | 14 | 77 | 1010 | 10 | SO 33.3 | |
| Oggi h: 02:30 | Nuvoloso | 18 | 14 | 77 | 1011 | 10 | SO 35.2 | |
| Oggi h: 02:00 | Molto Nuvoloso | 18 | 14 | 77 | 1011 | 10 | SO 33.3 | |
| Oggi h: 01:30 | Molto Nuvoloso | 18 | 14 | 77 | 1011 | 10 | SO 35.2 | |
| Oggi h: 01:00 | Molto Nuvoloso | 18 | 14 | 77 | 1011 | 10 | SO 27.8 | |
| Oggi h: 00:30 | Poco Nuvoloso | 18 | 14 | 77 | 1011 | 10 | SO 27.8 | |
| Oggi h: 00:00 | Molto Nuvoloso | 19 | 14 | 72 | 1011 | 10 | SO 25.9 | |
| Ieri h: 23:30 | Poco Nuvoloso | 18 | 15 | 82 | 1011 | 10 | SO 29.6 | |
| Ieri h: 23:00 | Molto Nuvoloso | 19 | 15 | 77 | 1011 | 10 | SO 29.6 | |
| Ieri h: 22:30 | Sereno | 19 | 15 | 77 | 1011 | 10 | S/SO 24 | |
| Ieri h: 22:00 | Sereno | 19 | 15 | 77 | 1011 | 10 | S/SO 24 | |



